Location: Cucq
(50.4773°N, 1.6202°E)
Time: 20:35:35
(UTC+00:00)

CZ-2D R/B - Pass Details

Date: 07 August 2020
Orbit: 552 x 639 km, 97.9° (Epoch: 21 September)

Event Time Altitude Azimuth Distance (km) Brightness Sun altitude
Rises 03:20:18 0° 12° (NNE) 2,815 7.9 -10.0°
Reaches altitude 10° 03:22:29 10° 11° (NNE) 1,898 6.9 -9.8°
Maximum altitude 03:26:35 77° 286° (WNW) 588 3.4 -9.3°
Drops below altitude 10° 03:30:34 10° 201° (SSW) 1,844 5.5 -8.8°
Enters shadow 03:30:57 - 201° (SSW) 2,007 5.7 -8.7°
